Tracking 22459 objects as of 3-Mar-2021
HD Live streaming from Space Station
objects crossing your sky now

SL-12 DEB

Track SL-12 DEB now!
10-day predictions


NORAD ID: 28590
Int'l Code: 1992-047Z
Perigee: 1,544.9 km
Apogee: 17,234.9 km
Inclination: 64.5 °
Period: 328.2 minutes
Semi major axis: 15760 km
RCS: 0.0615 m2 (small)
Launch date: July 30, 1992
Source: Commonwealth of Independent States (former USSR) (CIS)
Launch site: TYURATAM MISSILE AND SPACE COMPLEX (TTMTR)

Note: This is SATELLITE DEBRIS
aabbcc
Your satellite tracking list
Your tracking list is empty




NASA's NSSDC Master Catalog

Two Line Element Set (TLE):
1 28590U 92047Z   13208.98844579 -.00000018 +00000-0 +10000-3 0  9998
2 28590 064.5339 247.5473 4977512 355.5723 001.3900 04.38765476144881
Source of the keplerian elements: AFSPC